Waarnemingen

Advertentie
Mijn weer
Cuxhaven, Duitsland (10131): temperatuur & dauwpunt: 18.02.2018 22:00:00 - 24.02.2018 22:00:00 (CET)Cuxhaven, Duitsland (10131): temperatuur 5cm: 18.02.2018 22:00:00 - 24.02.2018 22:00:00 (CET)Cuxhaven, Duitsland (10131): windsnelheid & windstoten: 18.02.2018 22:00:00 - 24.02.2018 22:00:00 (CET)Cuxhaven, Duitsland (10131): windrichting: 18.02.2018 22:00:00 - 24.02.2018 22:00:00 (CET)Cuxhaven, Duitsland (10131): luchtdruk: 18.02.2018 22:00:00 - 24.02.2018 22:00:00 (CET)Cuxhaven, Duitsland (10131): zicht: 18.02.2018 22:00:00 - 24.02.2018 22:00:00 (CET)Cuxhaven, Duitsland (10131): Zonneschijnduur: 18.02.2018 22:00:00 - 24.02.2018 22:00:00 (CET)Cuxhaven, Duitsland (10131): neerslag: 18.02.2018 22:00:00 - 24.02.2018 22:00:00 (CET)
Datum & Tijd tt [°C] td [°C] tt 5cm [°C] ff [km/u] ff [kn] fx [km/u] fx [kn] dd ppp [hPa] vv [km] sd [min] rr [mm]
24.02.2018 22:00:00 -0,9 -6,4 -2,2 31 17 54 29 OZO 1034,0 41 0 0,0
24.02.2018 21:00:00 -0,5 -6,3 -1,5 39 21 50 27 O 1033,6 35 0 0,0
24.02.2018 20:00:00 -0,2 -6,9 -1,3 40 22 51 28 O 1033,1 44 0 0,0
24.02.2018 19:00:00 0,1 -7,0 -1,0 40 22 51 27 O 1033,0 36 0 0,0
24.02.2018 18:00:00 0,5 -7,5 -0,5 41 22 54 29 O 1032,5 35 27 0,0
24.02.2018 17:00:00 1,0 -6,6 0,9 43 23 55 30 O 1032,3 19 48 0,0
24.02.2018 16:00:00 1,2 -7,2 2,0 40 22 55 30 O 1032,2 14 60 0,0
24.02.2018 15:00:00 1,2 -7,3 2,6 44 24 55 30 O 1032,3 18 54 0,0
24.02.2018 14:00:00 1,6 -6,6 3,9 39 21 57 31 O 1032,2 8 60 0,0
24.02.2018 13:00:00 1,5 -6,2 3,2 40 22 52 28 O 1032,1 15 48 0,0
24.02.2018 12:00:00 0,9 -2,7 1,4 35 19 46 25 O 1032,2 24 0 0,0
24.02.2018 11:00:00 0,9 -2,1 1,5 28 15 40 21 O 1031,9 21 0 0,0
24.02.2018 10:00:00 0,5 -1,8 0,5 23 12 34 18 O 1032,0 13 0 0,0
24.02.2018 09:00:00 0,4 -2,6 0,3 30 16 42 23 O 1031,5 15 0 0,0
24.02.2018 08:00:00 0,6 -2,5 0,2 30 16 41 22 O 1031,1 15 0 0,0
24.02.2018 07:00:00 0,3 -2,8 0,0 27 15 35 19 ONO 1030,8 14 0 0,0
24.02.2018 06:00:00 0,0 -3,3 -0,3 25 14 40 21 O 1030,6 13 0 0,0
24.02.2018 05:00:00 -0,2 -3,7 -0,6 29 15 36 20 O 1030,1 17 0 0,0
24.02.2018 04:00:00 -1,1 -4,4 -2,4 22 12 32 18 OZO 1030,0 17 0 0,0
24.02.2018 03:00:00 -1,3 -4,7 -2,7 24 13 40 21 OZO 1029,8 13 0 0,0
24.02.2018 02:00:00 -0,9 -5,1 -2,2 24 13 37 20 O 1029,7 15 0 0,0
24.02.2018 01:00:00 -1,0 -4,9 -2,3 22 12 36 20 O 1029,5 15 0 0,0
24.02.2018 00:00:00 -0,7 -5,0 -2,1 29 16 40 22 O 1029,3 16 0 0,0
23.02.2018 23:00:00 -0,8 -4,6 -2,2 26 14 40 22 O 1028,9 14 0 0,0
23.02.2018 22:00:00 -0,6 -5,1 -1,8 30 16 39 21 O 1028,7 10 0 0,0
23.02.2018 21:00:00 -0,3 -5,8 -1,5 31 17 41 22 O 1028,1 17 0 0,0
23.02.2018 20:00:00 -0,2 -7,2 -1,4 32 17 39 21 O 1027,9 20 0 0,0
23.02.2018 19:00:00 0,3 -8,4 -1,0 30 16 40 22 O 1027,8 30 0 0,0
23.02.2018 18:00:00 0,9 -6,7 -0,5 27 15 37 20 O 1027,1 19 10 0,0
23.02.2018 17:00:00 1,0 -6,7 0,9 26 14 39 21 O 1027,3 17 45 0,0
23.02.2018 16:00:00 1,1 -6,5 1,8 28 15 42 23 O 1027,3 15 60 0,0
23.02.2018 15:00:00 1,4 -5,8 3,1 35 19 45 25 O 1027,2 10 58 0,0
23.02.2018 14:00:00 0,9 -5,5 2,3 31 17 39 21 O 1027,5 12 53 0,0
23.02.2018 13:00:00 0,7 -4,9 2,6 25 14 48 26 O 1027,9 36 56 0,0
23.02.2018 12:00:00 0,3 -5,3 0,8 32 18 44 24 O 1028,1 17 46 0,0
23.02.2018 11:00:00 -0,3 -4,9 0,3 32 17 40 22 O 1028,1 14 60 0,0
23.02.2018 10:00:00 -0,9 -5,4 -1,4 29 16 42 23 O 1028,1 16 59 0,0
23.02.2018 09:00:00 -0,7 -4,4 -1,5 33 18 46 25 OZO 1027,8 13 46 0,0
23.02.2018 08:00:00 -0,5 -3,6 -1,6 27 15 35 19 O 1027,4 11 0 0,0
23.02.2018 07:00:00 -0,2 -3,2 -1,5 29 16 39 21 O 1027,0 9 0 0,0
23.02.2018 06:00:00 0,3 -3,0 -1,3 28 15 39 21 O 1026,7 13 0 0,0
23.02.2018 05:00:00 0,2 -2,0 -1,3 29 15 35 19 O 1026,5 11 0 0,0
23.02.2018 04:00:00 0,2 -1,9 -1,3 27 15 34 18 ONO 1026,6 14 0 0,0
23.02.2018 03:00:00 0,3 -1,4 -0,9 22 12 32 17 ONO 1026,8 13 0 0,0
23.02.2018 02:00:00 0,1 -1,6 -0,4 19 10 27 15 ONO 1027,1 13 0 0,0
23.02.2018 01:00:00 -0,2 -1,6 -1,4 16 9 26 14 NO 1027,2 9 0 0,0
23.02.2018 00:00:00 0,0 -1,5 -1,7 14 8 25 14 ONO 1027,3 7 0 0,0
22.02.2018 23:00:00 0,6 -1,0 -1,2 20 11 27 15 ONO 1027,3 7 0 0,0
22.02.2018 22:00:00 0,7 -0,9 -0,9 19 10 25 13 ONO 1027,2 6 0 0,0
22.02.2018 21:00:00 0,9 -0,6 -1,0 15 8 20 11 O 1027,1 4,5 0 0,0
22.02.2018 20:00:00 1,1 -1,0 -0,4 19 10 32 18 O 1027,1 5 0 0,0
22.02.2018 19:00:00 1,2 -0,5 -0,6 11 6 16 9 ONO 1026,8 5 0 0,0
22.02.2018 18:00:00 1,5 -0,4 1,2 10 5 14 8 ONO 1026,8 5 0 0,0
22.02.2018 17:00:00 1,4 -0,5 1,5 8 5 12 7 NO 1027,0 6 0 0,0
22.02.2018 16:00:00 1,5 -0,7 1,8 6 3 10 5 ONO 1026,9 5 0 0,0
22.02.2018 15:00:00 1,8 -0,9 2,4 3 2 8 4 NNO 1027,1 6 0 0,0
22.02.2018 14:00:00 1,6 -0,9 2,4 4 2 15 8 Z 1027,4 6 0 0,0
22.02.2018 13:00:00 1,1 -1,5 1,8 8 5 13 7 ZZW 1027,7 7 0 0,0
22.02.2018 12:00:00 0,7 -1,2 1,5 8 5 16 8 Z 1027,8 5 0 0,0
22.02.2018 11:00:00 0,8 -1,1 1,1 9 5 14 8 ZZO 1027,9 4,0 0 0,0
22.02.2018 10:00:00 0,8 -1,1 0,9 5 3 10 5 Z 1027,8 3,0 0 0,0
22.02.2018 09:00:00 1,4 -0,4 0,9 5 3 14 8 OZO 1027,7 3,4 0 0,0
22.02.2018 08:00:00 1,5 -0,8 1,0 11 6 16 9 NO 1027,6 4,4 0 0,0
22.02.2018 07:00:00 1,5 -1,0 0,7 3 1 9 5 NNW 1027,5 4,8 0 0,0
22.02.2018 06:00:00 1,1 -0,9 -0,3 2 1 6 3 NO 1027,6 4,5 0 0,0
22.02.2018 05:00:00 0,6 -1,0 -0,4 4 2 5 3 NW 1027,5 4,5 0 0,0
22.02.2018 04:00:00 0,8 -1,3 -0,5 0 0 6 4 N 1027,7 5 0 0,0
22.02.2018 03:00:00 1,2 -1,0 -0,1 5 3 9 5 O 1028,0 4,9 0 0,0
22.02.2018 02:00:00 0,8 -1,1 -1,4 5 3 8 4 OZO 1028,1 5 0 0,0
22.02.2018 01:00:00 0,9 -1,5 -0,2 7 4 9 5 O 1028,4 6 0 0,0
22.02.2018 00:00:00 0,8 -1,3 -0,5 4 2 10 6 ZO 1028,3 6 0 0,0
21.02.2018 23:00:00 1,0 -1,5 -1,3 8 5 13 7 NO 1028,4 6 0 0,0
21.02.2018 22:00:00 1,3 -1,7 -0,7 10 5 16 8 NO 1028,4 8 0 0,0
21.02.2018 21:00:00 1,5 -1,6 -1,1 9 5 14 7 ONO 1028,2 9 0 0,0
21.02.2018 20:00:00 1,6 -1,7 -1,3 8 5 15 8 NO 1027,9 9 0 0,0
21.02.2018 19:00:00 1,9 -1,7 -0,7 12 6 16 9 ONO 1027,6 11 0 0,0
21.02.2018 18:00:00 2,3 -2,0 0,5 13 7 17 9 ONO 1027,3 12 0 0,0
21.02.2018 17:00:00 2,5 -3,3 2,3 13 7 17 9 O 1027,1 12 0 0,0
21.02.2018 16:00:00 2,7 -2,5 3,0 11 6 18 10 O 1027,2 15 1 0,0
21.02.2018 15:00:00 2,9 -3,3 4,4 15 8 19 10 O 1027,6 9 24 0,0
21.02.2018 14:00:00 3,0 -3,8 5,1 13 7 18 10 O 1027,9 8 36 0,0
21.02.2018 13:00:00 2,5 -2,4 4,9 11 6 15 8 O 1028,2 8 60 0,0
21.02.2018 12:00:00 1,7 -2,1 3,3 8 4 13 7 O 1028,3 7 59 0,0
21.02.2018 11:00:00 1,0 -2,2 1,1 9 5 13 7 O 1028,1 6 2 0,0
21.02.2018 10:00:00 0,7 -2,0 0,4 8 4 12 6 O 1027,9 6 41 0,0
21.02.2018 09:00:00 0,4 -2,0 -1,4 8 4 13 7 ONO 1027,6 7 29 0,0
21.02.2018 08:00:00 0,3 -2,2 -1,9 10 5 17 9 O 1027,1 6 0 0,0
21.02.2018 07:00:00 0,3 -2,3 -1,8 13 7 17 9 ONO 1026,9 7 0 0,0
21.02.2018 06:00:00 0,4 -2,1 -1,8 11 6 18 10 ONO 1027,1 8 0 0,0
21.02.2018 05:00:00 0,6 -2,2 -1,5 14 8 22 12 O 1026,9 8 0 0,0
21.02.2018 04:00:00 0,7 -2,6 -1,0 19 10 24 13 O 1026,7 9 0 0,0
21.02.2018 03:00:00 0,4 -2,4 -1,2 14 8 21 11 ONO 1026,9 8 0 0,0
21.02.2018 02:00:00 0,6 -2,5 -1,0 18 10 22 12 O 1026,2 9 0 0,0
21.02.2018 01:00:00 0,5 -2,1 -1,1 14 8 21 11 NO 1026,5 9 0 0,0
21.02.2018 00:00:00 0,8 -2,1 -1,2 16 9 28 15 ONO 1026,0 11 0 0,0
20.02.2018 23:00:00 1,4 -2,4 -0,2 21 12 29 16 O 1025,5 10 0 0,0
20.02.2018 22:00:00 1,5 -2,2 -0,1 23 12 29 16 ONO 1025,0 9 0 0,0
20.02.2018 21:00:00 1,9 -1,5 0,0 20 11 28 15 ONO 1024,6 7 0 0,0
20.02.2018 20:00:00 2,4 -1,7 0,8 23 12 29 15 O 1024,0 7 0 0,0
20.02.2018 19:00:00 2,9 -1,2 1,0 20 11 24 13 O 1023,4 6 0 0,0
20.02.2018 18:00:00 3,2 -1,1 1,5 19 10 27 15 O 1022,8 7 0 0,0
20.02.2018 17:00:00 3,8 -1,2 3,2 20 11 26 14 O 1022,1 8 48 0,0
20.02.2018 16:00:00 3,8 -0,1 4,0 10 5 16 9 O 1021,8 5 43 0,0
20.02.2018 15:00:00 4,0 0,2 6,4 9 5 16 9 O 1021,9 4,4 51 0,0
20.02.2018 14:00:00 3,7 0,2 6,7 13 7 17 9 O 1021,8 4,5 60 0,0
20.02.2018 13:00:00 3,3 0,1 6,0 13 7 21 11 O 1021,7 3,7 60 0,0
20.02.2018 12:00:00 3,2 0,3 4,6 13 7 17 9 O 1021,4 3,4 60 0,0
20.02.2018 11:00:00 2,0 -0,3 2,0 10 5 23 12 OZO 1021,0 3,0 60 0,0
20.02.2018 10:00:00 1,2 -0,6 0,1 18 10 22 12 OZO 1021,0 2,9 60 0,0
20.02.2018 09:00:00 1,1 -0,4 -0,3 11 6 16 9 OZO 1020,8 2,9 20 0,0
20.02.2018 08:00:00 1,4 0,3 -0,3 11 6 16 9 OZO 1020,5 2,1 0 0,0
20.02.2018 07:00:00 1,7 0,5 0,3 11 6 16 8 OZO 1020,1 2,4 0 0,0
20.02.2018 06:00:00 2,2 0,2 1,1 11 6 15 8 OZO 1020,0 2,6 0 0,0
20.02.2018 05:00:00 2,4 0,9 1,1 11 6 15 8 OZO 1019,8 2,2 0 0,0
20.02.2018 04:00:00 2,1 1,0 0,8 9 5 13 7 O 1019,7 1,8 0 0,0
20.02.2018 03:00:00 2,2 1,2 0,8 7 4 9 5 O 1019,7 1,8 0 0,0
20.02.2018 02:00:00 2,0 1,1 0,0 7 4 11 6 ONO 1019,7 2,1 0 0,0
20.02.2018 01:00:00 1,9 1,5 0,1 3 2 7 4 NNO 1019,7 1,8 0 0,0
20.02.2018 00:00:00 2,0 1,6 -0,4 0 0 8 4 N 1019,4 1,2 0 0,0
19.02.2018 23:00:00 2,5 1,7 0,3 8 4 9 5 O 1019,5 1,8 0 0,0
19.02.2018 22:00:00 2,8 1,6 0,3 5 3 7 4 O 1019,4 2,3 0 0,0
19.02.2018 21:00:00 2,7 1,3 0,0 3 1 6 3 OZO 1019,5 2,9 0 0,0
19.02.2018 20:00:00 2,9 1,5 0,1 3 1 5 3 ZO 1019,4 2,8 0 0,0
19.02.2018 19:00:00 3,1 1,7 0,8 4 2 7 4 ONO 1019,5 2,6 0 0,0
19.02.2018 18:00:00 3,1 1,2 -0,2 3 2 5 3 ONO 1019,2 3,0 0 0,0
19.02.2018 17:00:00 4,3 1,2 2,1 2 1 7 4 ONO 1019,2 3,7 43 0,0
19.02.2018 16:00:00 4,5 0,9 4,7 4 2 11 6 NO 1019,3 4,2 10 0,0
19.02.2018 15:00:00 4,6 1,0 5,2 9 5 14 8 NO 1019,4 4,4 29 0,0
19.02.2018 14:00:00 6,3 0,1 8,1 5 3 16 9 Z 1019,5 6 58 0,0
19.02.2018 13:00:00 5,6 -0,5 7,2 6 4 17 9 Z 1019,7 6 26 0,0
19.02.2018 12:00:00 4,1 -0,8 4,8 9 5 18 10 ZZW 1020,0 4,8 41 0,0
19.02.2018 11:00:00 3,2 -1,4 3,5 11 6 18 10 ZZW 1020,1 4,8 33 0,0
19.02.2018 10:00:00 2,1 -1,5 2,0 9 5 20 11 ZZW 1020,4 5 0 0,0
19.02.2018 09:00:00 1,3 -1,8 0,8 11 6 20 11 ZZW 1020,7 5 0 0,0
19.02.2018 08:00:00 1,6 -1,6 0,6 10 5 18 10 ZZW 1020,7 4,6 0 0,0
19.02.2018 07:00:00 1,6 -1,4 0,7 10 5 20 11 ZZW 1020,7 4,8 0 0,0
19.02.2018 06:00:00 1,7 -1,0 0,9 10 6 19 10 ZZW 1020,7 4,1 0 0,0
19.02.2018 05:00:00 1,6 -1,0 0,7 7 4 16 9 Z 1020,9 4,1 0 0,0
19.02.2018 04:00:00 1,8 -1,2 0,8 8 5 16 9 ZZW 1021,4 4,4 0 0,0
19.02.2018 03:00:00 1,6 -1,4 0,6 7 4 16 8 Z 1021,9 4,2 0 0,0
19.02.2018 02:00:00 1,8 -1,4 0,8 9 5 18 10 ZZW 1022,2 4,9 0 0,0
19.02.2018 01:00:00 1,9 -1,6 0,8 10 5 16 9 ZZW 1022,9 5 0 0,0
19.02.2018 00:00:00 2,1 -1,5 0,6 9 5 16 9 ZZW 1023,3 6 0 0,0
18.02.2018 23:00:00 2,4 -1,5 0,8 8 4 16 9 ZZW 1023,6 6 0 0,0
18.02.2018 22:00:00 2,3 -1,4 0,7 5 3 13 7 Z 1023,7 8 0 0,0

tt = temperatuur
td = dauwpunt
tt 5cm = temperatuur 5cm
ff = windsnelheid
fx = windstoten
dd = windrichting
ppp = luchtdruk
vv = zicht
sd = Zonneschijnduur
rr = neerslag

Weerstations in de omgeving